Location: *
(33.8649°S, 62.1526°E)
Time: 07:12:48
(UTC+00:00)

ATLAS CENTAUR Rocket - Visible Passes

Search period start: 11 May 2021 00:00
Search period end: 21 May 2021 00:00
Orbit: 626 x 36620 km, 27.7° (Epoch: 10 May)

Date Brightness Start Highest point End Pass type
(mag) Time Alt. Az. Time Alt. Az. Time Alt. Az.
11 May 7.3 19:31:54 26° NE 19:31:54 26° NE 04:55:22 10° NNE visible
13 May 2.6 14:37:06 10° WNW 14:40:39 35° N 14:41:31 31° NE visible
15 May 7.4 00:02:35 14° WNW 00:52:41 24° NNW 05:09:53 10° NW visible
15 May 6.8 21:54:12 35° NNW 21:57:08 35° NNW 07:55:04 10° NE visible
16 May 7.3 19:45:48 29° NE 19:45:48 29° NE 05:22:56 10° NE visible
18 May 2.5 14:51:13 10° WNW 14:54:40 40° N 14:55:00 40° NNE visible
20 May 7.6 00:19:55 10° WNW 01:17:52 20° NW 04:27:43 10° NW visible
